Tracking 31028 objects as of 17-Jul-2025
HD Live streaming from Space Station
objects crossing your sky now

STARLINK-5706

Track STARLINK-5706 now!
10-day predictions
STARLINK-5706 is classified as:


NORAD ID: 55488
Int'l Code: 2023-015AR
Perigee: 565.4 km
Apogee: 567.0 km
Inclination: 43.0 °
Period: 95.8 minutes
Semi major axis: 6937 km
RCS: Unknown
Launch date: February 2, 2023
Source: United States (US)
Launch site: AIR FORCE EASTERN TEST RANGE (AFETR)
Your satellite tracking list
Your tracking list is empty




NASA's NSSDC Master Catalog

Two Line Element Set (TLE):
1 55488U 23015AR  25198.20840051  .00000145  00000-0  25812-4 0  9998
2 55488  43.0025 178.3302 0001191 297.4237  62.6484 15.02536629135183
Source of the keplerian elements: AFSPC